{"data":{"norad_id":55761,"intl_designator":"2023-028W","name":"STARLINK-5611","alt_names":[],"object_type":"PAYLOAD","status":"ACTIVE","operator":null,"country":"US","launch_date":"2023-03-03","launch_site_code":"AFWTR","launch_vehicle":null,"mission":null,"orbit_class":"UNKNOWN","rcs_meters":null,"size_class":null,"mass_kg":null,"dimensions":null,"purposes":["comms"],"wikipedia_slug":null,"has_3d_model":false,"image_url":null,"decayed_at":null,"tle_current":{"epoch":"2026-05-25T02:19:54.870240Z","epoch_age_seconds":60581,"freshness":"FRESH","line1":"1 55761U 23028W   26145.09716285  .00000104  00000+0  16496-4 0  9999","line2":"2 55761  69.9998  31.9944 0002913 268.7018  91.3807 14.98334939177975","mean_motion":14.98334939,"eccentricity":0.0002913,"inclination_deg":69.9998,"raan_deg":31.9944,"arg_perigee_deg":268.7018,"mean_anomaly_deg":91.3807,"bstar":1.6496e-5,"rev_number":17797,"period_min":96.10668232572,"perigee_km":570.0160307963,"apogee_km":574.06520427628,"semimajor_km":6950.1776175363,"source":"CELESTRAK","updated_at":"2026-05-25T13:38:17.881553Z"}}}